Hourly Data Report for July 17, 2012

All times are specified in Local Standard Time (LST). Add 1 hour to adjust for Daylight Saving Time where and when it is observed.

TIMMINS A
ONTARIO

48°34'14.000" N
81°22'36.000" W
294.70 m
6078286
71739
YTS

Download Data

Hourly Data (July 2012)
Hourly Data Report for July 17, 2012
Temp Definition
°C
Dew Point Temp Definition
°C
Rel Hum Definition
%
Wind Dir Definition
10's deg

Wind Spd Definition
km/h
Visibility Definition
km
Stn Press Definition
kPa
Hmdx Definition


Wind Chill Definition


Weather Definition


TIME
00:00 16.6 16.3 98 13 5 4.8 97.03     Rain,Fog
01:00 16.4 16.1 98 34 9 4.8 97.06     Rain,Fog
02:00 16.2 15.9 98   0 8.1 97.03     Fog
03:00 16.2 15.9 98 35 9 10.0 97.06     LegendNANA
04:00 16.1 15.9 99 35 9 1.6 97.04     Fog
05:00 16.0 15.8 99 34 10 0.8 97.09     Fog
06:00 16.1 15.9 99 32 11 1.2 97.15     Fog
07:00 16.4 15.9 97 31 13 2.4 97.23     Fog
08:00 17.0 16.4 96 33 10 4.8 97.24     Fog
09:00 18.4 16.9 91 31 7 6.4 97.25     Fog
10:00 18.5 17.0 91 33 11 8.1 97.30     Fog
11:00 19.5 17.0 85 35 20 8.1 97.35     Fog
12:00 17.9 15.9 88 34 14 8.1 97.42     Fog
13:00 20.4 14.8 70 36 17 10.0 97.44     Mostly Cloudy
14:00 21.2 12.5 57 0 17 10.0 97.44     LegendNANA
15:00 21.5 12.5 56 35 22 10.0 97.46     LegendNANA
16:00 21.4 12.9 58 33 11 10.0 97.50     Mostly Cloudy
17:00 20.9 11.4 54 33 20 10.0 97.53     LegendNANA
18:00 19.9 10.4 54 33 14 10.0 97.51     LegendNANA
19:00 18.7 10.9 60 34 8 10.0 97.55     Mainly Clear
20:00 17.3 10.5 64 33 8 10.0 97.61     LegendNANA
21:00 15.9 10.5 70 35 12 10.0 97.70     LegendNANA
22:00 14.4 10.5 77 33 10 10.0 97.80     Mainly Clear
23:00 12.8 9.5 80 33 10 10.0 97.84     LegendNANA

Notes on Data Quality.

Legend

  • E = Estimated
  • M = Missing
  • NA = Not Available
Date modified: